Location: Wapato
(46.4478°N, 120.4212°W)
Time: 01:43:36
(UTC+00:00)

Transit 4A - All Passes

Search period start: 14 May 2026 00:00
Search period end: 24 May 2026 00:00
Orbit: 861 x 980 km, 66.8° (Epoch: 13 May)

Date Brightness Start Highest point End Pass type
(mag) Time Alt. Az. Time Alt. Az. Time Alt. Az.
14 May - 00:18:39 10° NNW 00:24:57 53° NE 00:31:11 10° SE daylight
14 May - 02:05:24 10° NW 02:11:05 34° WSW 02:16:41 10° S daylight
14 May - 15:28:04 10° S 15:33:40 39° ESE 15:39:26 10° NE daylight
14 May - 17:14:00 10° WSW 17:19:55 47° NW 17:26:02 10° NNE daylight
14 May - 19:04:07 10° WNW 19:07:58 16° NNW 19:11:51 10° NNE daylight
14 May - 20:55:08 10° NNW 20:57:16 12° N 20:59:24 10° NNE daylight
14 May - 22:41:28 10° NNW 22:46:17 22° NNE 22:51:06 10° E daylight
15 May - 00:27:21 10° NNW 00:33:48 72° NE 00:40:10 10° SE daylight
15 May - 02:14:36 10° NW 02:19:34 24° WSW 02:24:29 10° SSW daylight
15 May - 15:36:18 10° SSW 15:42:15 55° ESE 15:48:24 10° NE daylight
15 May - 17:23:14 10° WSW 17:28:53 36° NW 17:34:42 10° NNE daylight
15 May - 19:14:03 10° NW 19:17:16 14° NNW 19:20:32 10° NNE daylight
15 May - 21:04:07 10° NNW 21:06:40 12° N 21:09:13 10° NE daylight
15 May - 22:50:06 10° NNW 22:55:27 27° NE 23:00:45 10° E daylight
16 May - 00:36:07 10° NW 00:42:35 85° WSW 00:48:56 10° SSE daylight
16 May - 02:24:11 10° WNW 02:27:59 17° WSW 02:31:46 10° SW daylight
16 May - 14:02:44 10° SE 14:05:40 14° E 14:08:38 10° ENE daylight
16 May - 15:44:47 10° SSW 15:50:54 77° ESE 15:57:15 10° NE daylight
16 May - 17:32:39 10° W 17:37:56 28° NW 17:43:20 10° NNE daylight
16 May - 19:23:58 10° NW 19:26:37 13° NNW 19:29:18 10° NNE daylight
16 May - 21:12:54 10° NNW 21:16:02 14° NNE 21:19:10 10° NE daylight
16 May - 22:58:44 10° NNW 23:04:30 33° NE 23:10:14 10° ESE daylight
17 May - 00:44:57 10° NW 00:51:16 62° WSW 00:57:30 10° SSE daylight
17 May - 02:35:03 10° W 02:36:20 11° W 02:37:37 10° WSW daylight
17 May - 14:09:40 10° SSE 14:14:03 21° ESE 14:18:31 10° ENE daylight
17 May - 15:53:29 10° SW 15:59:39 78° NW 16:06:02 10° NNE daylight
17 May - 17:42:13 10° W 17:47:03 23° NNW 17:51:58 10° NNE daylight
17 May - 19:33:49 10° NNW 19:36:01 12° N 19:38:13 10° NNE daylight
17 May - 21:21:35 10° NNW 21:25:21 16° NNE 21:29:07 10° ENE daylight
17 May - 23:07:23 10° NNW 23:13:30 43° NE 23:19:32 10° ESE daylight
18 May - 00:53:51 10° NW 00:59:54 44° WSW 01:05:51 10° S daylight
18 May - 14:17:18 10° SSE 14:22:30 30° ESE 14:27:51 10° NE daylight
18 May - 16:02:24 10° SW 16:08:29 58° NW 16:14:46 10° NNE daylight
18 May - 17:51:57 10° WNW 17:56:15 19° NNW 18:00:36 10° NNE daylight
18 May - 19:43:24 10° NNW 19:45:26 11° N 19:47:28 10° NNE daylight
18 May - 21:30:14 10° NNW 21:34:37 19° NNE 21:39:00 10° ENE daylight
18 May - 23:16:04 10° NNW 23:22:24 57° NE 23:28:40 10° SE daylight
19 May - 01:02:54 10° NW 01:08:26 31° WSW 01:13:54 10° S daylight
19 May - 14:25:19 10° S 14:31:02 42° ESE 14:36:55 10° NE daylight
19 May - 16:11:30 10° WSW 16:17:23 44° NW 16:23:27 10° NNE daylight
19 May - 18:01:48 10° WNW 18:05:30 16° NNW 18:09:16 10° NNE daylight
19 May - 19:52:37 10° NNW 19:54:50 12° N 19:57:04 10° NNE daylight
19 May - 21:38:52 10° NNW 21:43:49 23° NNE 21:48:45 10° E daylight
19 May - 23:24:47 10° NNW 23:31:14 77° NE 23:37:35 10° SE daylight
20 May - 01:12:11 10° WNW 01:16:55 22° WSW 01:21:36 10° SSW daylight
20 May - 14:33:37 10° SSW 14:39:38 60° ESE 14:45:52 10° NE daylight
20 May - 16:20:47 10° WSW 16:26:22 34° NW 16:32:06 10° NNE daylight
20 May - 18:11:44 10° NW 18:14:50 14° NNW 18:17:57 10° NNE daylight
20 May - 20:01:32 10° NNW 20:04:14 13° NNE 20:06:56 10° NE daylight
20 May - 21:47:30 10° NNW 21:52:56 28° NE 21:58:21 10° E daylight
20 May - 23:33:33 10° NW 23:39:59 80° WSW 23:46:20 10° SSE daylight
21 May - 01:21:55 10° WNW 01:25:19 15° WSW 01:28:41 10° SW daylight
21 May - 12:59:35 10° SE 13:02:59 15° ESE 13:06:26 10° ENE daylight
21 May - 14:42:09 10° SSW 14:48:19 83° ESE 14:54:42 10° NE daylight
21 May - 16:30:13 10° W 16:35:26 27° NW 16:40:44 10° NNE daylight
21 May - 18:21:39 10° NW 18:24:12 12° N 18:26:45 10° NNE daylight
21 May - 20:10:18 10° NNW 20:13:36 14° NNE 20:16:53 10° NE daylight
21 May - 21:56:08 10° NNW 22:01:59 35° NE 22:07:48 10° ESE daylight
21 May - 23:42:23 10° NW 23:48:40 58° WSW 23:54:51 10° SSE daylight
22 May - 13:06:45 10° SSE 13:11:23 23° ESE 13:16:07 10° ENE daylight
22 May - 14:50:54 10° SW 14:57:04 73° NW 15:03:27 10° NNE daylight
22 May - 16:39:51 10° W 16:44:34 22° NNW 16:49:22 10° NNE daylight
22 May - 18:31:27 10° NNW 18:33:36 12° N 18:35:44 10° NNE daylight
22 May - 20:18:59 10° NNW 20:22:54 16° NNE 20:26:49 10° ENE daylight
22 May - 22:04:47 10° NNW 22:10:58 46° NE 22:17:03 10° ESE daylight
22 May - 23:51:20 10° NW 23:57:16 41° WSW 00:03:07 10° S daylight
23 May - 13:14:29 10° S 13:19:51 33° ESE 13:25:22 10° NE daylight
23 May - 14:59:52 10° SW 15:05:55 54° NW 15:12:10 10° NNE daylight
23 May - 16:49:36 10° WNW 16:53:46 18° NNW 16:58:00 10° NNE daylight
23 May - 18:40:57 10° NNW 18:43:01 11° N 18:45:04 10° NNE daylight
23 May - 20:27:37 10° NNW 20:32:09 20° NNE 20:36:39 10° ENE daylight
23 May - 22:13:28 10° NNW 22:19:51 61° NE 22:26:08 10° SE daylight
